Location: Newark
(33.6439°N, 114.9881°W)
Time: 23:50:38
(UTC+00:00)

Envisat - Pass Details

Date: 30 March 2019
Orbit: 764 x 766 km, 98.2° (Epoch: 23 April)

Event Time Altitude Azimuth Distance (km) Brightness Sun altitude
Rises 03:36:07 0° 211° (SSW) 3,218 6.4 -20.7°
Reaches altitude 10° 03:39:30 10° 235° (SW) 2,297 5.9 -21.4°
Maximum altitude 03:42:13 14° 267° (W) 2,006 6.0 -21.9°
Drops below altitude 10° 03:44:56 10° 300° (WNW) 2,305 6.6 -22.4°
Sets 03:48:21 0° 324° (NW) 3,236 7.1 -23.1°
